RJAA

Tokyo Narita Airport

Airport
ICAO code
RJAA
IATA Code
NRT
Summary
ICAO Region
APAC
ICAO Territory
Location

Narita, Chiba Prefecture

Serving
Tokyo
Elevation
135 ft
Coordinates
35° 46' 25" N , 140° 23' 18" E
KCC
Metar
Observation
RJAA 282300Z 21003KT 170V240 9999 FEW030 M02/M07 Q1014 NOSIG
Station
New Tokyo Inter-National Airport
Date/Time
2023-01-28 23:00:00
Wind direction
210°
Wind speed
03 kts
Lowest cloud amount
few clouds
Temperature
-2°C
Dew point
-7°C
Humidity
68%
QNH
1014 hPa
Weather condition
n/a

Also know as Tokyo Narita Airport or Narita International Airport, Narita was formerly the major international airport serving Tokyo until Haneda reopened to intercontinental traffic. Narita airport is located 57.5 km east of Tokyo and 7 km east-southeast of the city of Narita.

Climatology

Humid subtropical climate (Köppen climate classification Cfa).

Runways

Designator Length Width Surface Rops
16L/34R 2180 60 ASP Yes/Yes
16R/34L 4000 60 ASP Yes/Yes

SKYbrary Partners:

Safety knowledge contributed by: